Flag for U.S.A. Weather past 2 weeks in Neenah, Wisconsin, U.S.A.

Now
25 °F

Overcast.


Feels Like: 14 °F
Forecast: 11 / 19 °F
Wind: 12 mph from North

Location: Appleton / Outagamie

Current Time: Dec 28, 2014 at 8:43:16 PM

Latest Report: Dec 28, 2014 at 7:45 PM


Visibility: 10 mi

Pressure: 30.22 "Hg

Humidity: 69%

Dew point: 16 °F

Location of NeenahLocation

Historic Weather in Neenah — Graph

°F

Neenah temperature yesterday

Maximum temperature yesterday: 36 °F (at 8:45 AM)
Minimum temperature yesterday: 23 °F (at 11:15 PM)
Average temperature yesterday: 31 °F

Past Weeks' High & Low Weather Summary

 TemperatureHumidityPressure
High43 °F (Dec 15, 10:45 AM)100% (Dec 13, 6:45 PM)30.31 "Hg (Dec 13, 6:45 PM)
Low16 °F (Dec 19, 5:45 AM)54% (Dec 28, 12:45 PM)29.48 "Hg (Dec 24, 1:45 PM)
Average31 °F92%29.97 "Hg
* Reported Dec 13 6:45 PM — Dec 28 6:45 PM, Neenah, Weather by CustomWeather, © 2014

Note: Actual official high and low records may vary slightly from our data, if they occured in-between our weather recording intervals... More about our weather records

Advertising

Neenah weather history for previous 24 hours

 ConditionsComfort  
Time TempWeatherWind HumidityBarometerVisibility
6:45 PM
Dec 28
25 °FMostly cloudy.9 mph74%30.21 "Hg10 mi
4:45 PM27 °FOvercast.7 mph69%30.16 "Hg10 mi
3:45 PM27 °FPartly sunny.6 mph69%30.15 "Hg10 mi
2:45 PM27 °FPartly sunny.5 mph69%30.13 "Hg10 mi
1:45 PM27 °FScattered clouds.5 mph69%30.11 "Hg10 mi
12:45 PM27 °FPartly sunny.6 mph54%30.11 "Hg10 mi
11:45 AM25 °FPartly sunny.7 mph69%30.13 "Hg10 mi
10:45 AM21 °FScattered clouds.7 mph80%30.13 "Hg10 mi
9:45 AM19 °FPartly sunny.9 mph86%30.13 "Hg10 mi
8:45 AM18 °FPartly sunny.10 mph86%30.12 "Hg10 mi
7:45 AM18 °FScattered clouds.12 mph79%30.10 "Hg10 mi
6:45 AM18 °FClear.9 mph79%30.09 "Hg10 mi
5:45 AM18 °FClear.9 mph86%30.08 "Hg10 mi
4:15 AM19 °FClear.10 mph86%30.06 "Hg10 mi
3:55 AM21 °FClear.7 mph80%30.07 "Hg10 mi
3:35 AM21 °FClear.9 mph86%30.07 "Hg10 mi
3:15 AM21 °FClear.8 mph86%30.07 "Hg10 mi
2:55 AM21 °FClear.10 mph86%30.07 "Hg10 mi
2:35 AM21 °FClear.12 mph93%30.08 "Hg10 mi
2:15 AM21 °FClear.9 mph93%30.07 "Hg10 mi
1:55 AM21 °FClear.8 mph93%30.07 "Hg10 mi
1:35 AM21 °FClear.9 mph93%30.06 "Hg10 mi
1:15 AM23 °FClear.10 mph86%30.06 "Hg10 mi
12:55 AM23 °FClear.12 mph86%30.06 "Hg10 mi
12:35 AM23 °FClear.12 mph80%30.06 "Hg10 mi
12:15 AM23 °FClear.10 mph80%30.07 "Hg10 mi
11:55 PM
Dec 27
23 °FClear.13 mph80%30.07 "Hg10 mi
11:35 PM23 °FClear.14 mph80%30.07 "Hg10 mi
11:15 PM23 °FClear.15 mph80%30.08 "Hg10 mi
10:55 PM25 °FPassing clouds.15 mph74%30.08 "Hg10 mi
10:35 PM27 °FOvercast.15 mph74%30.07 "Hg10 mi
10:15 PM27 °FOvercast.9 mph80%30.07 "Hg10 mi
8:45 PM28 °FPassing clouds.17 mph74%30.04 "Hg10 mi
Weather by CustomWeather, © 2014

See weather overviewHow to use our weather pages